| time (UTC) | temp F | wind direction | speed MPH | gust MPH | rain 1hr in | rain 24hr in | rain mn in | humidity % | barometer mb |
| 20260510060038 | 67 | 253 | 2.0 | 10.0 | 0.00 | 0.00 | 0.00 | 50 | 1017.8 |
| 20260510055533 | 67 | 316 | 3.0 | 10.0 | 0.00 | 0.00 | 0.00 | 51 | 1017.8 |
| 20260510055031 | 67 | 278 | 2.0 | 10.0 | 0.00 | 0.00 | 0.00 | 52 | 1017.9 |
| 20260510054531 | 67 | 311 | 1.0 | 10.0 | 0.00 | 0.00 | 0.00 | 55 | 1017.9 |
| 20260510054032 | 67 | 261 | 2.0 | 9.0 | 0.00 | 0.00 | 0.00 | 53 | 1017.9 |
| 20260510053531 | 67 | 313 | 3.0 | 10.0 | 0.00 | 0.00 | 0.00 | 51 | 1018.0 |
| 20260510053031 | 67 | 274 | 2.0 | 10.0 | 0.00 | 0.00 | 0.00 | 52 | 1017.9 |
| 20260510052531 | 67 | 304 | 1.0 | 9.0 | 0.00 | 0.00 | 0.00 | 52 | 1017.9 |
| 20260510052032 | 68 | 258 | 3.0 | 9.0 | 0.00 | 0.00 | 0.00 | 52 | 1018.0 |
| 20260510051031 | 68 | 294 | 1.0 | 9.0 | 0.00 | 0.00 | 0.00 | 53 | 1017.9 |
| 20260510050530 | 68 | 272 | 1.0 | 10.0 | 0.00 | 0.00 | 0.00 | 53 | 1018.0 |
| 20260510050031 | 68 | 311 | 1.0 | 10.0 | 0.00 | 0.00 | 0.00 | 50 | 1018.0 |
| 20260510045531 | 68 | 296 | 2.0 | 9.0 | 0.00 | 0.00 | 0.00 | 52 | 1017.9 |
| 20260510045031 | 68 | 244 | 2.0 | 7.0 | 0.00 | 0.00 | 0.00 | 52 | 1018.0 |
| 20260510044533 | 68 | 311 | 1.0 | 10.0 | 0.00 | 0.00 | 0.00 | 51 | 1017.9 |
| 20260510044030 | 69 | 292 | 1.0 | 10.0 | 0.00 | 0.00 | 0.00 | 51 | 1017.8 |
| 20260510043530 | 69 | 273 | 1.0 | 8.0 | 0.00 | 0.00 | 0.00 | 48 | 1017.8 |
| 20260510043030 | 69 | 287 | 1.0 | 11.0 | 0.00 | 0.00 | 0.00 | 47 | 1017.8 |
| 20260510042529 | 70 | 291 | 0.0 | 9.0 | 0.00 | 0.00 | 0.00 | 48 | 1017.8 |
| 20260510042029 | 70 | 290 | 1.0 | 10.0 | 0.00 | 0.00 | 0.00 | 45 | 1017.8 |
| 20260510041030 | 70 | 257 | 2.0 | 11.0 | 0.00 | 0.00 | 0.00 | 46 | 1017.7 |
| 20260510040530 | 71 | 238 | 2.0 | 9.0 | 0.00 | 0.00 | 0.00 | 43 | 1017.6 |
| 20260510040032 | 71 | 238 | 1.0 | 12.0 | 0.00 | 0.00 | 0.00 | 42 | 1017.5 |
| 20260510035529 | 71 | 263 | 1.0 | 12.0 | 0.00 | 0.00 | 0.00 | 42 | 1017.5 |
| 20260510035029 | 71 | 220 | 1.0 | 6.0 | 0.00 | 0.00 | 0.00 | 43 | 1017.5 |
| 20260510034529 | 71 | 195 | 0.0 | 9.0 | 0.00 | 0.00 | 0.00 | 43 | 1017.4 |
| 20260510034029 | 71 | 215 | 2.0 | 9.0 | 0.00 | 0.00 | 0.00 | 43 | 1017.4 |
| 20260510033529 | 71 | 210 | 0.0 | 11.0 | 0.00 | 0.00 | 0.00 | 44 | 1017.3 |
| 20260510033029 | 71 | 174 | 1.0 | 12.0 | 0.00 | 0.00 | 0.00 | 46 | 1017.2 |
| 20260510032529 | 71 | 178 | 2.0 | 14.0 | 0.00 | 0.00 | 0.00 | 44 | 1017.2 |
| 20260510032029 | 72 | 195 | 1.0 | 14.0 | 0.00 | 0.00 | 0.00 | 45 | 1017.1 |
| 20260510031046 | 72 | 205 | 1.0 | 7.0 | 0.00 | 0.00 | 0.00 | 46 | 1017.1 |
| 20260510030546 | 72 | 130 | 0.0 | 8.0 | 0.00 | 0.00 | 0.00 | 41 | 1017.1 |
| 20260510030055 | 72 | 229 | 1.0 | 8.0 | 0.00 | 0.00 | 0.00 | 40 | 1017.1 |
| 20260510025545 | 73 | 241 | 0.0 | 11.0 | 0.00 | 0.00 | 0.00 | 40 | 1017.0 |
| 20260510025048 | 73 | 205 | 3.0 | 11.0 | 0.00 | 0.00 | 0.00 | 39 | 1017.1 |
| 20260510024550 | 73 | 207 | 1.0 | 10.0 | 0.00 | 0.00 | 0.00 | 38 | 1017.0 |
| 20260510024045 | 73 | 190 | 0.0 | 11.0 | 0.00 | 0.00 | 0.00 | 39 | 1017.0 |
| 20260510023548 | 74 | 190 | 1.0 | 11.0 | 0.00 | 0.00 | 0.00 | 39 | 1016.9 |
| 20260510023044 | 74 | 174 | 1.0 | 14.0 | 0.00 | 0.00 | 0.00 | 38 | 1017.0 |
| 20260510022544 | 75 | 191 | 2.0 | 11.0 | 0.00 | 0.00 | 0.00 | 37 | 1017.0 |
| 20260510022047 | 75 | 222 | 0.0 | 9.0 | 0.00 | 0.00 | 0.00 | 38 | 1017.0 |
| 20260510021029 | 76 | 276 | 3.0 | 12.0 | 0.00 | 0.00 | 0.00 | 38 | 1017.0 |
| 20260510020526 | 76 | 285 | 2.0 | 13.0 | 0.00 | 0.00 | 0.00 | 38 | 1017.0 |
| 20260510020026 | 76 | 267 | 0.0 | 13.0 | 0.00 | 0.00 | 0.00 | 40 | 1017.1 |
| 20260510015525 | 76 | 151 | 0.0 | 9.0 | 0.00 | 0.00 | 0.00 | 40 | 1017.0 |
| 20260510015025 | 76 | 184 | 0.0 | 8.0 | 0.00 | 0.00 | 0.00 | 42 | 1017.0 |
| 20260510014529 | 77 | 237 | 1.0 | 11.0 | 0.00 | 0.00 | 0.00 | 42 | 1016.9 |
| 20260510014026 | 77 | 288 | 2.0 | 12.0 | 0.00 | 0.00 | 0.00 | 42 | 1016.9 |
| 20260510013526 | 78 | 311 | 1.0 | 12.0 | 0.00 | 0.00 | 0.00 | 42 | 1016.9 |
| 20260510013026 | 78 | 263 | 2.0 | 12.0 | 0.00 | 0.00 | 0.00 | 42 | 1017.0 |
| 20260510012525 | 78 | 313 | 2.0 | 10.0 | 0.00 | 0.00 | 0.00 | 41 | 1016.9 |
| 20260510012025 | 78 | 310 | 2.0 | 10.0 | 0.00 | 0.00 | 0.00 | 43 | 1017.0 |
| 20260510011026 | 79 | 322 | 2.0 | 14.0 | 0.00 | 0.00 | 0.00 | 42 | 1017.1 |
| 20260510010525 | 79 | 296 | 2.0 | 11.0 | 0.00 | 0.00 | 0.00 | 45 | 1017.0 |
| 20260510010025 | 79 | 338 | 1.0 | 7.0 | 0.00 | 0.00 | 0.00 | 45 | 1017.0 |
| 20260510005524 | 80 | 272 | 1.0 | 8.0 | 0.00 | 0.00 | 0.00 | 44 | 1017.1 |
| 20260510005024 | 80 | 324 | 0.0 | 8.0 | 0.00 | 0.00 | 0.00 | 46 | 1017.1 |
| 20260510004524 | 80 | 310 | 1.0 | 8.0 | 0.00 | 0.00 | 0.00 | 47 | 1017.1 |
| 20260510004025 | 81 | 282 | 0.0 | 8.0 | 0.00 | 0.00 | 0.00 | 48 | 1017.1 |
| 20260510003534 | 81 | 222 | 1.0 | 8.0 | 0.00 | 0.00 | 0.00 | 48 | 1017.1 |
| 20260510003032 | 81 | 341 | 1.0 | 7.0 | 0.00 | 0.00 | 0.00 | 47 | 1017.1 |
| 20260510002523 | 81 | 307 | 0.0 | 8.0 | 0.00 | 0.00 | 0.00 | 44 | 1017.1 |
| 20260510002024 | 82 | 282 | 1.0 | 6.0 | 0.00 | 0.00 | 0.00 | 45 | 1017.1 |
| 20260510001023 | 82 | 159 | 1.0 | 6.0 | 0.00 | 0.00 | 0.00 | 45 | 1017.1 |
| 20260510000522 | 82 | 319 | 0.0 | 9.0 | 0.00 | 0.00 | 0.00 | 44 | 1017.1 |
| 20260510000025 | 82 | 318 | 1.0 | 9.0 | 0.00 | 0.00 | 0.00 | 42 | 1017.1 |
| 20260509235521 | 82 | 309 | 0.0 | 5.0 | 0.00 | 0.00 | 0.00 | 42 | 1017.2 |
| 20260509235020 | 82 | 259 | 0.0 | 7.0 | 0.00 | 0.00 | 0.00 | 46 | 1017.2 |
| 20260509234533 | 83 | 333 | 0.0 | 8.0 | 0.00 | 0.00 | 0.00 | 47 | 1017.3 |
| 20260509234023 | 83 | 278 | 2.0 | 9.0 | 0.00 | 0.00 | 0.00 | 39 | 1017.3 |
| 20260509233519 | 83 | 256 | 1.0 | 11.0 | 0.00 | 0.00 | 0.00 | 39 | 1017.3 |
| 20260509233031 | 83 | 282 | 2.0 | 11.0 | 0.00 | 0.00 | 0.00 | 41 | 1017.4 |
| 20260509232520 | 83 | 274 | 0.0 | 9.0 | 0.00 | 0.00 | 0.00 | 41 | 1017.4 |
| 20260509232020 | 83 | 248 | 1.0 | 9.0 | 0.00 | 0.00 | 0.00 | 41 | 1017.4 |
| 20260509231018 | 83 | 286 | 1.0 | 9.0 | 0.00 | 0.00 | 0.00 | 41 | 1017.4 |
| 20260509230518 | 84 | 346 | 0.0 | 6.0 | 0.00 | 0.00 | 0.00 | 40 | 1017.4 |
| 20260509230018 | 84 | 315 | 0.0 | 5.0 | 0.00 | 0.00 | 0.00 | 39 | 1017.5 |
| 20260509225518 | 84 | 315 | 0.0 | 5.0 | 0.00 | 0.00 | 0.00 | 39 | 1017.6 |
| 20260509225017 | 83 | 281 | 0.0 | 6.0 | 0.00 | 0.00 | 0.00 | 39 | 1017.6 |
| 20260509224518 | 83 | 324 | 0.0 | 4.0 | 0.00 | 0.00 | 0.00 | 39 | 1017.6 |
| 20260509224016 | 83 | 330 | 0.0 | 7.0 | 0.00 | 0.00 | 0.00 | 39 | 1017.7 |
| 20260509223516 | 83 | 319 | 1.0 | 7.0 | 0.00 | 0.00 | 0.00 | 38 | 1017.7 |
| 20260509223017 | 84 | 311 | 1.0 | 6.0 | 0.00 | 0.00 | 0.00 | 38 | 1017.8 |
| 20260509222514 | 84 | 334 | 1.0 | 5.0 | 0.00 | 0.00 | 0.00 | 38 | 1017.9 |
| 20260509222015 | 84 | 331 | 0.0 | 5.0 | 0.00 | 0.00 | 0.00 | 37 | 1018.0 |
| 20260509221017 | 83 | 280 | 0.0 | 6.0 | 0.00 | 0.00 | 0.00 | 40 | 1018.1 |
| 20260509220516 | 83 | 286 | 2.0 | 6.0 | 0.00 | 0.00 | 0.00 | 38 | 1018.1 |
| 20260509220018 | 83 | 315 | 0.0 | 7.0 | 0.00 | 0.00 | 0.00 | 38 | 1018.2 |
| 20260509215512 | 84 | 321 | 0.0 | 5.0 | 0.00 | 0.00 | 0.00 | 38 | 1018.1 |
| 20260509215017 | 83 | 317 | 0.0 | 3.0 | 0.00 | 0.00 | 0.00 | 39 | 1018.2 |
| 20260509214510 | 83 | 315 | 0.0 | 5.0 | 0.00 | 0.00 | 0.00 | 38 | 1018.3 |
| 20260509214012 | 82 | 300 | 0.0 | 5.0 | 0.00 | 0.00 | 0.00 | 39 | 1018.4 |
| 20260509213519 | 82 | 326 | 1.0 | 5.0 | 0.00 | 0.00 | 0.00 | 38 | 1018.4 |
| 20260509213008 | 82 | 311 | 0.0 | 4.0 | 0.00 | 0.00 | 0.00 | 37 | 1018.5 |
| 20260509212505 | 82 | 318 | 0.0 | 3.0 | 0.00 | 0.00 | 0.00 | 39 | 1018.5 |
| 20260509212008 | 81 | 303 | 0.0 | 5.0 | 0.00 | 0.00 | 0.00 | 40 | 1018.6 |
| 20260509211105 | 81 | 326 | 1.0 | 5.0 | 0.00 | 0.00 | 0.00 | 40 | 1018.6 |
| 20260509210503 | 81 | 303 | 1.0 | 5.0 | 0.00 | 0.00 | 0.00 | 42 | 1018.7 |
| 20260509210003 | 80 | 307 | 0.0 | 7.0 | 0.00 | 0.00 | 0.00 | 43 | 1018.7 |
| 20260509205502 | 80 | 280 | 0.0 | 7.0 | 0.00 | 0.00 | 0.00 | 48 | 1018.8 |
| 20260509205002 | 80 | 275 | 0.0 | 7.0 | 0.00 | 0.00 | 0.00 | 46 | 1018.8 |
| 20260509204502 | 80 | 279 | 1.0 | 7.0 | 0.00 | 0.00 | 0.00 | 48 | 1018.8 |
| 20260509204002 | 80 | 251 | 0.0 | 4.0 | 0.00 | 0.00 | 0.00 | 46 | 1018.9 |
| 20260509203503 | 81 | 299 | 0.0 | 4.0 | 0.00 | 0.00 | 0.00 | 46 | 1018.9 |
| 20260509203101 | 81 | 249 | 0.0 | 2.0 | 0.00 | 0.00 | 0.00 | 47 | 1018.9 |
| 20260509202601 | 80 | 248 | 0.0 | 2.0 | 0.00 | 0.00 | 0.00 | 44 | 1019.0 |
| 20260509202058 | 80 | 247 | 0.0 | 3.0 | 0.00 | 0.00 | 0.00 | 47 | 1019.1 |
| 20260509201659 | 79 | 251 | 1.0 | 6.0 | 0.00 | 0.00 | 0.00 | 43 | 1019.1 |
| 20260509201056 | 80 | 282 | 0.0 | 4.0 | 0.00 | 0.00 | 0.00 | 42 | 1019.1 |
| 20260509200555 | 79 | 269 | 0.0 | 4.0 | 0.00 | 0.00 | 0.00 | 45 | 1019.2 |
| 20260509200103 | 79 | 289 | 0.0 | 6.0 | 0.00 | 0.00 | 0.00 | 45 | 1019.2 |
| 20260509195557 | 78 | 278 | 0.0 | 6.0 | 0.00 | 0.00 | 0.00 | 44 | 1019.3 |
| 20260509195056 | 78 | 286 | 0.0 | 4.0 | 0.00 | 0.00 | 0.00 | 43 | 1019.3 |
| 20260509194551 | 77 | 298 | 0.0 | 6.0 | 0.00 | 0.00 | 0.00 | 41 | 1019.3 |
| 20260509194052 | 76 | 293 | 0.0 | 6.0 | 0.00 | 0.00 | 0.00 | 45 | 1019.3 |
| 20260509193548 | 75 | 311 | 0.0 | 5.0 | 0.00 | 0.00 | 0.00 | 48 | 1019.4 |
| 20260509193052 | 75 | 297 | 0.0 | 5.0 | 0.00 | 0.00 | 0.00 | 50 | 1019.4 |
| 20260509192545 | 74 | 292 | 1.0 | 4.0 | 0.00 | 0.00 | 0.00 | 50 | 1019.5 |
| 20260509192044 | 73 | 269 | 0.0 | 5.0 | 0.00 | 0.00 | 0.00 | 56 | 1019.5 |
| 20260509191644 | 73 | 224 | 0.0 | 5.0 | 0.00 | 0.00 | 0.00 | 57 | 1019.6 |
| 20260509191042 | 72 | 307 | 0.0 | 5.0 | 0.00 | 0.00 | 0.00 | 57 | 1019.6 |
| 20260509190541 | 73 | 274 | 1.0 | 5.0 | 0.00 | 0.00 | 0.00 | 56 | 1019.7 |
| 20260509190041 | 73 | 301 | 0.0 | 4.0 | 0.00 | 0.00 | 0.00 | 58 | 1019.7 |
| 20260509185541 | 73 | 291 | 0.0 | 4.0 | 0.00 | 0.00 | 0.00 | 55 | 1019.7 |
| 20260509185040 | 72 | 313 | 0.0 | 4.0 | 0.00 | 0.00 | 0.00 | 56 | 1019.7 |
| 20260509184544 | 72 | 264 | 0.0 | 5.0 | 0.00 | 0.00 | 0.00 | 55 | 1019.7 |
| 20260509184037 | 71 | 262 | 0.0 | 5.0 | 0.00 | 0.00 | 0.00 | 55 | 1019.8 |
| 20260509183539 | 71 | 215 | 0.0 | 1.0 | 0.00 | 0.00 | 0.00 | 57 | 1019.9 |
| 20260509183037 | 71 | 209 | 0.0 | 4.0 | 0.00 | 0.00 | 0.00 | 58 | 1019.9 |
| 20260509182535 | 70 | 274 | 0.0 | 5.0 | 0.00 | 0.00 | 0.00 | 57 | 1019.9 |
| 20260509182034 | 70 | 275 | 0.0 | 5.0 | 0.00 | 0.00 | 0.00 | 53 | 1020.0 |
| 20260509181635 | 70 | 224 | 0.0 | 3.0 | 0.00 | 0.00 | 0.00 | 55 | 1020.0 |
| 20260509181034 | 70 | 220 | 0.0 | 3.0 | 0.00 | 0.00 | 0.00 | 56 | 1020.0 |
| 20260509180532 | 70 | 289 | 0.0 | 3.0 | 0.00 | 0.00 | 0.00 | 54 | 1020.1 |
| 20260509180032 | 70 | 296 | 0.0 | 3.0 | 0.00 | 0.00 | 0.00 | 55 | 1020.1 |
| 20260509175531 | 69 | 269 | 0.0 | 3.0 | 0.00 | 0.00 | 0.00 | 56 | 1020.1 |
| 20260509175030 | 69 | 217 | 0.0 | 4.0 | 0.00 | 0.00 | 0.00 | 58 | 1020.1 |
| 20260509174529 | 68 | 259 | 0.0 | 4.0 | 0.00 | 0.00 | 0.00 | 59 | 1020.1 |
| 20260509174028 | 68 | 220 | 0.0 | 4.0 | 0.00 | 0.00 | 0.00 | 59 | 1020.2 |
| 20260509173527 | 68 | 219 | 0.0 | 4.0 | 0.00 | 0.00 | 0.00 | 60 | 1020.2 |
| 20260509173030 | 68 | 235 | 0.0 | 3.0 | 0.00 | 0.00 | 0.00 | 56 | 1020.2 |
| 20260509172526 | 67 | 248 | 0.0 | 2.0 | 0.00 | 0.00 | 0.00 | 59 | 1020.2 |
| 20260509172025 | 67 | 272 | 0.0 | 3.0 | 0.00 | 0.00 | 0.00 | 62 | 1020.3 |
| 20260509171624 | 66 | 303 | 0.0 | 3.0 | 0.00 | 0.00 | 0.00 | 65 | 1020.2 |
| 20260509171023 | 66 | 237 | 0.0 | 3.0 | 0.00 | 0.00 | 0.00 | 67 | 1020.2 |
| 20260509170522 | 66 | 254 | 0.0 | 2.0 | 0.00 | 0.00 | 0.00 | 68 | 1020.2 |
| 20260509170021 | 65 | 261 | 0.0 | 1.0 | 0.00 | 0.00 | 0.00 | 70 | 1020.2 |
| 20260509165521 | 64 | 261 | 0.0 | 5.0 | 0.00 | 0.00 | 0.00 | 71 | 1020.3 |
| 20260509165019 | 64 | 288 | 0.0 | 5.0 | 0.00 | 0.00 | 0.00 | 72 | 1020.3 |
| 20260509164518 | 64 | 288 | 0.0 | 4.0 | 0.00 | 0.00 | 0.00 | 73 | 1020.3 |
| 20260509164020 | 63 | 280 | 0.0 | 4.0 | 0.00 | 0.00 | 0.00 | 74 | 1020.4 |
| 20260509163516 | 63 | 250 | 0.0 | 5.0 | 0.00 | 0.00 | 0.00 | 73 | 1020.3 |
| 20260509163025 | 63 | 255 | 0.0 | 5.0 | 0.00 | 0.00 | 0.00 | 74 | 1020.4 |
| 20260509162516 | 62 | 266 | 0.0 | 5.0 | 0.00 | 0.00 | 0.00 | 74 | 1020.3 |
| 20260509162014 | 62 | 265 | 0.0 | 5.0 | 0.00 | 0.00 | 0.00 | 74 | 1020.4 |
| 20260509161612 | 62 | 274 | 0.0 | 2.0 | 0.00 | 0.00 | 0.00 | 73 | 1020.4 |
| 20260509161014 | 62 | 274 | 0.0 | 2.0 | 0.00 | 0.00 | 0.00 | 74 | 1020.4 |
| 20260509160511 | 61 | 275 | 0.0 | 5.0 | 0.00 | 0.00 | 0.00 | 74 | 1020.4 |
| 20260509160011 | 61 | 265 | 0.0 | 5.0 | 0.00 | 0.00 | 0.00 | 73 | 1020.4 |
| 20260509155510 | 61 | 247 | 0.0 | 3.0 | 0.00 | 0.00 | 0.00 | 73 | 1020.3 |
| 20260509155009 | 61 | 284 | 0.0 | 3.0 | 0.00 | 0.00 | 0.00 | 73 | 1020.4 |
| 20260509154509 | 61 | 292 | 0.0 | 2.0 | 0.00 | 0.00 | 0.00 | 72 | 1020.4 |
| 20260509154010 | 60 | 280 | 0.0 | 2.0 | 0.00 | 0.00 | 0.00 | 71 | 1020.4 |
| 20260509153507 | 60 | 242 | 0.0 | 3.0 | 0.00 | 0.00 | 0.00 | 73 | 1020.5 |
| 20260509153016 | 60 | 246 | 0.0 | 3.0 | 0.00 | 0.00 | 0.00 | 75 | 1020.5 |
| 20260509152506 | 59 | 253 | 0.0 | 5.0 | 0.00 | 0.00 | 0.00 | 75 | 1020.5 |
| 20260509152006 | 59 | 279 | 0.0 | 7.0 | 0.00 | 0.00 | 0.00 | 74 | 1020.5 |
| 20260509151615 | 59 | 281 | 0.0 | 5.0 | 0.00 | 0.00 | 0.00 | 71 | 1020.5 |
| 20260509151005 | 59 | 285 | 0.0 | 5.0 | 0.00 | 0.00 | 0.00 | 72 | 1020.5 |
| 20260509150505 | 58 | 289 | 0.0 | 6.0 | 0.00 | 0.00 | 0.00 | 70 | 1020.5 |
| 20260509150005 | 58 | 284 | 0.0 | 5.0 | 0.00 | 0.00 | 0.00 | 73 | 1020.3 |
| 20260509145506 | 58 | 287 | 0.0 | 5.0 | 0.00 | 0.00 | 0.00 | 74 | 1020.3 |
| 20260509145004 | 58 | 294 | 0.0 | 3.0 | 0.00 | 0.00 | 0.00 | 76 | 1020.4 |
| 20260509144505 | 57 | 301 | 0.0 | 7.0 | 0.00 | 0.00 | 0.00 | 76 | 1020.3 |
| 20260509144004 | 57 | 291 | 1.0 | 7.0 | 0.00 | 0.00 | 0.00 | 76 | 1020.3 |
| 20260509143505 | 57 | 299 | 0.0 | 6.0 | 0.00 | 0.00 | 0.00 | 76 | 1020.4 |
| 20260509143005 | 57 | 305 | 1.0 | 7.0 | 0.00 | 0.00 | 0.00 | 76 | 1020.4 |
| 20260509142502 | 57 | 270 | 1.0 | 7.0 | 0.00 | 0.00 | 0.00 | 76 | 1020.2 |
| 20260509142002 | 57 | 259 | 0.0 | 6.0 | 0.00 | 0.00 | 0.00 | 76 | 1020.1 |
| 20260509141604 | 57 | 310 | 0.0 | 7.0 | 0.00 | 0.00 | 0.00 | 76 | 1020.1 |
| 20260509141003 | 57 | 276 | 0.0 | 6.0 | 0.00 | 0.00 | 0.00 | 77 | 1020.1 |
| 20260509140502 | 57 | 311 | 0.0 | 9.0 | 0.00 | 0.00 | 0.00 | 77 | 1020.1 |
| 20260509140001 | 57 | 280 | 0.0 | 9.0 | 0.00 | 0.00 | 0.00 | 78 | 1020.2 |
| 20260509135502 | 56 | 288 | 1.0 | 9.0 | 0.00 | 0.00 | 0.00 | 78 | 1020.1 |
| 20260509135002 | 56 | 273 | 1.0 | 6.0 | 0.00 | 0.00 | 0.00 | 77 | 1020.1 |
| 20260509134501 | 56 | 199 | 0.0 | 6.0 | 0.00 | 0.00 | 0.00 | 78 | 1020.1 |
| 20260509134000 | 56 | 251 | 0.0 | 9.0 | 0.00 | 0.00 | 0.00 | 78 | 1020.0 |
| 20260509133501 | 56 | 262 | 2.0 | 9.0 | 0.00 | 0.00 | 0.00 | 78 | 1020.1 |
| 20260509133107 | 56 | 233 | 1.0 | 8.0 | 0.00 | 0.00 | 0.00 | 78 | 1020.1 |
| 20260509132600 | 56 | 315 | 0.0 | 5.0 | 0.00 | 0.00 | 0.00 | 79 | 1020.0 |
| 20260509132059 | 56 | 298 | 0.0 | 7.0 | 0.00 | 0.00 | 0.00 | 79 | 1020.1 |
| 20260509131600 | 56 | 284 | 1.0 | 7.0 | 0.00 | 0.00 | 0.00 | 79 | 1020.0 |
| 20260509131100 | 56 | 284 | 2.0 | 7.0 | 0.00 | 0.00 | 0.00 | 79 | 1020.0 |
| 20260509130600 | 56 | 275 | 1.0 | 8.0 | 0.00 | 0.00 | 0.00 | 79 | 1019.9 |
| 20260509130101 | 56 | 321 | 0.0 | 7.0 | 0.00 | 0.00 | 0.00 | 79 | 1019.9 |
| 20260509125559 | 56 | 283 | 1.0 | 6.0 | 0.00 | 0.00 | 0.00 | 79 | 1019.9 |
| 20260509125058 | 56 | 286 | 1.0 | 7.0 | 0.00 | 0.00 | 0.00 | 80 | 1019.9 |
| 20260509124602 | 56 | 292 | 0.0 | 7.0 | 0.00 | 0.00 | 0.00 | 79 | 1019.9 |
| 20260509124101 | 56 | 296 | 0.0 | 6.0 | 0.00 | 0.00 | 0.00 | 79 | 1019.8 |
| 20260509123601 | 56 | 251 | 0.0 | 5.0 | 0.00 | 0.00 | 0.00 | 80 | 1019.9 |
| 20260509123105 | 56 | 298 | 0.0 | 5.0 | 0.00 | 0.00 | 0.00 | 80 | 1019.9 |
| 20260509122559 | 56 | 236 | 0.0 | 6.0 | 0.00 | 0.00 | 0.00 | 80 | 1019.8 |
| 20260509122058 | 56 | 293 | 0.0 | 4.0 | 0.00 | 0.00 | 0.00 | 80 | 1019.9 |
| 20260509121602 | 56 | 280 | 0.0 | 5.0 | 0.00 | 0.00 | 0.00 | 79 | 1020.0 |
| 20260509121056 | 56 | 310 | 0.0 | 5.0 | 0.00 | 0.00 | 0.00 | 79 | 1019.9 |
| 20260509120559 | 56 | 291 | 0.0 | 6.0 | 0.00 | 0.00 | 0.00 | 77 | 1020.0 |
| 20260509115558 | 56 | 283 | 0.0 | 6.0 | 0.00 | 0.00 | 0.00 | 76 | 1020.0 |
| 20260509115055 | 57 | 288 | 1.0 | 6.0 | 0.00 | 0.00 | 0.00 | 77 | 1020.0 |
| 20260509114605 | 57 | 284 | 0.0 | 6.0 | 0.00 | 0.00 | 0.00 | 77 | 1020.0 |
| 20260509114055 | 57 | 269 | 0.0 | 7.0 | 0.00 | 0.00 | 0.00 | 77 | 1020.0 |
| 20260509113601 | 57 | 294 | 1.0 | 7.0 | 0.00 | 0.00 | 0.00 | 78 | 1020.0 |
| 20260509113104 | 57 | 276 | 1.0 | 7.0 | 0.00 | 0.00 | 0.00 | 78 | 1020.0 |
| 20260509112553 | 57 | 269 | 0.0 | 4.0 | 0.00 | 0.00 | 0.00 | 78 | 1020.0 |
| 20260509112053 | 57 | 206 | 0.0 | 6.0 | 0.00 | 0.00 | 0.00 | 77 | 1020.0 |
| 20260509111554 | 57 | 255 | 1.0 | 7.0 | 0.00 | 0.00 | 0.00 | 76 | 1020.1 |
| 20260509111056 | 57 | 257 | 1.0 | 7.0 | 0.00 | 0.00 | 0.00 | 76 | 1020.1 |
| 20260509110553 | 57 | 261 | 1.0 | 7.0 | 0.00 | 0.00 | 0.00 | 76 | 1020.1 |
| 20260509110052 | 57 | 255 | 0.0 | 5.0 | 0.00 | 0.00 | 0.00 | 75 | 1020.1 |
| 20260509105554 | 57 | 251 | 0.0 | 5.0 | 0.00 | 0.00 | 0.00 | 75 | 1020.1 |
| 20260509105051 | 58 | 248 | 0.0 | 3.0 | 0.00 | 0.00 | 0.00 | 74 | 1020.1 |
| 20260509104551 | 58 | 250 | 0.0 | 4.0 | 0.00 | 0.00 | 0.00 | 75 | 1020.1 |
| 20260509104051 | 58 | 264 | 0.0 | 5.0 | 0.00 | 0.00 | 0.00 | 75 | 1020.0 |
| 20260509103551 | 58 | 266 | 1.0 | 5.0 | 0.00 | 0.00 | 0.00 | 75 | 1020.0 |
| 20260509103050 | 58 | 265 | 0.0 | 4.0 | 0.00 | 0.00 | 0.00 | 75 | 1020.0 |
| 20260509102550 | 58 | 291 | 0.0 | 4.0 | 0.00 | 0.00 | 0.00 | 76 | 1019.9 |
| 20260509102050 | 58 | 257 | 0.0 | 7.0 | 0.00 | 0.00 | 0.00 | 77 | 1019.9 |
| 20260509101550 | 58 | 274 | 0.0 | 7.0 | 0.00 | 0.00 | 0.00 | 78 | 1019.9 |
| 20260509101051 | 58 | 278 | 1.0 | 7.0 | 0.00 | 0.00 | 0.00 | 77 | 1019.9 |
| 20260509100551 | 58 | 287 | 0.0 | 8.0 | 0.00 | 0.00 | 0.00 | 77 | 1019.9 |
| 20260509100050 | 58 | 284 | 0.0 | 8.0 | 0.00 | 0.00 | 0.00 | 76 | 1019.9 |
| 20260509095550 | 58 | 309 | 1.0 | 8.0 | 0.00 | 0.00 | 0.00 | 75 | 1019.9 |
| 20260509095048 | 59 | 289 | 1.0 | 8.0 | 0.00 | 0.00 | 0.00 | 72 | 1019.9 |
| 20260509094550 | 59 | 294 | 1.0 | 8.0 | 0.00 | 0.00 | 0.00 | 72 | 1019.9 |
| 20260509094047 | 59 | 287 | 0.0 | 7.0 | 0.00 | 0.00 | 0.00 | 71 | 1020.0 |
| 20260509093546 | 59 | 294 | 1.0 | 7.0 | 0.00 | 0.00 | 0.00 | 70 | 1020.0 |
| 20260509093046 | 59 | 317 | 1.0 | 6.0 | 0.00 | 0.00 | 0.00 | 70 | 1020.1 |
| 20260509092544 | 60 | 301 | 1.0 | 8.0 | 0.00 | 0.00 | 0.00 | 69 | 1020.1 |
| 20260509092044 | 60 | 237 | 1.0 | 8.0 | 0.00 | 0.00 | 0.00 | 67 | 1020.1 |
| 20260509091554 | 60 | 271 | 1.0 | 4.0 | 0.00 | 0.00 | 0.00 | 67 | 1020.1 |
| 20260509091043 | 60 | 276 | 0.0 | 4.0 | 0.00 | 0.00 | 0.00 | 67 | 1020.1 |
| 20260509090545 | 60 | 290 | 0.0 | 7.0 | 0.00 | 0.00 | 0.00 | 68 | 1020.0 |
| 20260509090058 | 60 | 286 | 0.0 | 7.0 | 0.00 | 0.00 | 0.00 | 68 | 1020.1 |
| 20260509085544 | 60 | 287 | 1.0 | 7.0 | 0.00 | 0.00 | 0.00 | 69 | 1020.1 |
| 20260509085040 | 60 | 294 | 1.0 | 7.0 | 0.00 | 0.00 | 0.00 | 71 | 1020.1 |
| 20260509084545 | 60 | 259 | 0.0 | 5.0 | 0.00 | 0.00 | 0.00 | 69 | 1020.3 |
| 20260509084040 | 60 | 301 | 1.0 | 6.0 | 0.00 | 0.00 | 0.00 | 68 | 1020.4 |
| 20260509083540 | 60 | 280 | 1.0 | 6.0 | 0.00 | 0.00 | 0.00 | 65 | 1020.4 |
| 20260509083049 | 60 | 291 | 1.0 | 6.0 | 0.00 | 0.00 | 0.00 | 65 | 1020.5 |
| 20260509082540 | 60 | 315 | 0.0 | 6.0 | 0.00 | 0.00 | 0.00 | 65 | 1020.5 |
| 20260509082041 | 61 | 285 | 1.0 | 6.0 | 0.00 | 0.00 | 0.00 | 67 | 1020.5 |
| 20260509081541 | 61 | 272 | 1.0 | 7.0 | 0.00 | 0.00 | 0.00 | 64 | 1020.6 |
| 20260509081040 | 61 | 309 | 1.0 | 7.0 | 0.00 | 0.00 | 0.00 | 65 | 1020.6 |
| 20260509080541 | 61 | 296 | 1.0 | 9.0 | 0.00 | 0.00 | 0.00 | 67 | 1020.6 |
| 20260509080056 | 61 | 267 | 2.0 | 9.0 | 0.00 | 0.00 | 0.00 | 63 | 1020.7 |
| 20260509075539 | 61 | 258 | 2.0 | 8.0 | 0.00 | 0.00 | 0.00 | 60 | 1020.6 |
| 20260509075043 | 61 | 326 | 0.0 | 7.0 | 0.00 | 0.00 | 0.00 | 61 | 1020.7 |
| 20260509074541 | 61 | 323 | 1.0 | 7.0 | 0.00 | 0.00 | 0.00 | 63 | 1020.7 |
| 20260509074043 | 61 | 277 | 0.0 | 7.0 | 0.00 | 0.00 | 0.00 | 62 | 1020.7 |
| 20260509073539 | 62 | 265 | 1.0 | 10.0 | 0.00 | 0.00 | 0.00 | 63 | 1020.7 |
| 20260509073039 | 62 | 299 | 2.0 | 10.0 | 0.00 | 0.00 | 0.00 | 63 | 1020.7 |
| 20260509072539 | 62 | 290 | 2.0 | 8.0 | 0.00 | 0.00 | 0.00 | 64 | 1020.7 |
| 20260509072038 | 62 | 297 | 3.0 | 9.0 | 0.00 | 0.00 | 0.00 | 60 | 1020.7 |
| 20260509071539 | 62 | 304 | 1.0 | 5.0 | 0.00 | 0.00 | 0.00 | 60 | 1020.7 |
| 20260509071039 | 62 | 327 | 1.0 | 7.0 | 0.00 | 0.00 | 0.00 | 60 | 1020.7 |
| 20260509070539 | 63 | 272 | 2.0 | 9.0 | 0.00 | 0.00 | 0.00 | 61 | 1020.6 |
| 20260509070043 | 63 | 306 | 3.0 | 9.0 | 0.00 | 0.00 | 0.00 | 61 | 1020.7 |
| 20260509065538 | 63 | 313 | 0.0 | 8.0 | 0.00 | 0.00 | 0.00 | 58 | 1020.7 |
| 20260509065038 | 63 | 317 | 1.0 | 10.0 | 0.00 | 0.00 | 0.00 | 56 | 1020.7 |
| 20260509064539 | 63 | 250 | 1.0 | 10.0 | 0.00 | 0.00 | 0.00 | 55 | 1020.7 |
| 20260509064038 | 64 | 281 | 0.0 | 5.0 | 0.00 | 0.00 | 0.00 | 56 | 1020.7 |
| 20260509063539 | 64 | 315 | 0.0 | 10.0 | 0.00 | 0.00 | 0.00 | 57 | 1020.7 |
| 20260509063044 | 64 | 315 | 1.0 | 10.0 | 0.00 | 0.00 | 0.00 | 55 | 1020.7 |
| 20260509062538 | 64 | 313 | 2.0 | 8.0 | 0.00 | 0.00 | 0.00 | 55 | 1020.7 |
| 20260509062038 | 64 | 318 | 1.0 | 8.0 | 0.00 | 0.00 | 0.00 | 56 | 1020.7 |
| 20260509061538 | 64 | 327 | 2.0 | 11.0 | 0.00 | 0.00 | 0.00 | 55 | 1020.7 |
| 20260509061038 | 64 | 336 | 3.0 | 11.0 | 0.00 | 0.00 | 0.00 | 55 | 1020.7 |
| 20260509060537 | 64 | 300 | 2.0 | 10.0 | 0.00 | 0.00 | 0.00 | 54 | 1020.7 |